Project,Study,Ord_Occ,Event_Num,Cast_ID,Date_Time_UTC,Date_Time_PST,Lat_Dec,Lon_Dec,Sta_ID,Line,Sta,Depth,Pressure,PrQ,Temp1,Temp1Q,Temp2,Temp2Q,TempAve,Salt1,Salt1Q,Salt1_Corr,Salt2,Salt2Q,Salt2_Corr,SaltAve_Corr,Ox1,Ox1Q,Ox1_CruiseCorr,Ox1_StaCorr,Ox2,Ox2Q,Ox2_CruiseCorr,Ox2_StaCorr,OxAve_StaCorr,Ox1uM,Ox1uM_CruiseCorr,Ox1uM_StaCorr,Ox2uM,Ox2uM_CruiseCorr,Ox2uM_StaCorr,OxAveuM_StaCorr,FluorV,FluorQ,EstChl_CruiseCorr,EstChl_StaCorr,ISUSV,ISUSQ,EstNO3_CruiseCorr,EstNO3_StaCorr,SigThetaTS1,SigThetaTS1Q,SigThetaTS2,SigThetaTS2Q,BAT,XMiss,TransQ,pH,pHQ,SPAR,SPARQ,PAR,PARQ,PoT1,PoT2,DynHt,SVA,OxSat1,OxSat2,BTL_Depth,BTL_Temp,SaltB,OxB,OxBuM,Chl-a,Phaeo,NO3,NO2,NH4,PO4,SIL
CalCOFI,2101RL,071,,2101_071d,02-Feb-2021 11:53:26,02-Feb-2021 03:53:26,34.88457,-121.19265,076.7 055.0,076.7,055.0,3.000,3.022,,12.8781,,12.8780,,12.8781,33.4720,,33.4778,33.4703,,33.4723,33.4751,5.9451,,6.2220,6.2751,5.8026,,6.1609,6.2376,6.2564,258.973,271.3531,211.8576,252.767,288.4344,210.4082,211.1329,0.3016,,2.2231,, ,, , ,25.2334,,25.2321,,1.1363,75.2706,,,,3.6762E+00,,1.0000E-12,,12.8777,12.8776,0.0030,272.639,99.097,96.721,3,,33.4697,6.199,270.48,,,,,,,
CalCOFI,2101RL,071,,2101_071d,02-Feb-2021 11:53:32,02-Feb-2021 03:53:32,34.88456,-121.19264,076.7 055.0,076.7,055.0,4.000,4.029,,12.8765,,12.8765,,12.8765,33.4720,,33.4778,33.4703,,33.4723,33.4751,5.9507,,6.2279,6.2810,5.8260,,6.1858,6.2629,6.2720,259.217,271.6086,212.0305,253.783,288.7058,211.1411,211.5858,0.2975,,2.1895,, ,, , ,25.2337,,25.2325,,1.1381,75.2373,,,,3.6951E+00,,1.0000E-12,,12.8760,12.8759,0.0069,272.637,99.187,97.107,,,,,,,,,,,,
CalCOFI,2101RL,071,,2101_071d,02-Feb-2021 11:53:34,02-Feb-2021 03:53:34,34.88456,-121.19264,076.7 055.0,076.7,055.0,5.000,5.036,,12.8779,,12.8781,,12.8780,33.4720,,33.4778,33.4703,,33.4723,33.4751,5.9483,,6.2254,6.2785,5.8390,,6.1996,6.2769,6.2777,259.112,271.4986,211.9561,254.350,288.5890,211.5500,211.7531,0.3002,,2.2117,, ,, , ,25.2336,,25.2321,,1.1395,75.2099,,,,3.6947E+00,,1.0000E-12,,12.8772,12.8774,0.0096,272.682,99.150,97.327,,,,,,,,,,,,
CalCOFI,2101RL,071,,2101_071d,02-Feb-2021 11:53:35,02-Feb-2021 03:53:35,34.88456,-121.19264,076.7 055.0,076.7,055.0,6.000,6.044,,12.8787,,12.8781,,12.8784,33.4720,,33.4778,33.4704,,33.4724,33.4751,5.9288,,6.2050,6.2579,5.8406,,6.2013,6.2787,6.2683,258.265,270.6120,211.3559,254.423,287.6471,211.6027,211.4793,0.3070,,2.2674,, ,, , ,25.2334,,25.2323,,1.1385,75.2294,,,,3.6947E+00,,1.0000E-12,,12.8779,12.8773,0.0123,272.725,98.827,97.355,,,,,,,,,,,,
CalCOFI,2101RL,071,,2101_071d,02-Feb-2021 11:53:36,02-Feb-2021 03:53:36,34.88456,-121.19263,076.7 055.0,076.7,055.0,7.000,7.051,,12.8842,,12.8857,,12.8850,33.4726,,33.4784,33.4708,,33.4728,33.4756,5.9206,,6.1964,6.2492,5.8497,,6.2110,6.2885,6.2689,257.907,270.2372,211.1022,254.816,287.2490,211.8862,211.4942,0.2971,,2.1863,, ,, , ,25.2328,,25.2311,,1.1384,75.2314,,,,3.6947E+00,,1.0000E-12,,12.8832,12.8848,0.0151,272.806,98.702,97.521,,,,,,,,,,,,
CalCOFI,2101RL,071,,2101_071d,02-Feb-2021 11:53:37,02-Feb-2021 03:53:37,34.88456,-121.19262,076.7 055.0,076.7,055.0,8.000,8.058,,12.8844,,12.8839,,12.8842,33.4723,,33.4781,33.4707,,33.4727,33.4754,5.9286,,6.2048,6.2577,5.8549,,6.2165,6.2941,6.2759,258.255,270.6015,211.3488,255.046,287.6360,212.0521,211.7005,0.3022,,2.2281,, ,, , ,25.2326,,25.2314,,1.1376,75.2465,,,,3.6947E+00,,1.0000E-12,,12.8833,12.8828,0.0179,272.854,98.835,97.605,,,,,,,,,,,,
CalCOFI,2101RL,071,,2101_071d,02-Feb-2021 11:53:39,02-Feb-2021 03:53:39,34.88456,-121.19262,076.7 055.0,076.7,055.0,9.000,9.066,,12.8837,,12.8853,,12.8845,33.4725,,33.4783,33.4709,,33.4729,33.4756,5.9330,,6.2094,6.2623,5.8395,,6.2001,6.2775,6.2699,258.448,270.8036,211.4855,254.372,287.8506,211.5659,211.5257,0.2893,,2.1224,, ,, , ,25.2329,,25.2313,,1.1384,75.2318,,,,3.6947E+00,,1.0000E-12,,12.8825,12.8841,0.0206,272.851,98.908,97.350,,,,,,,,,,,,
CalCOFI,2101RL,071,,2101_071d,02-Feb-2021 11:53:41,02-Feb-2021 03:53:41,34.88456,-121.19262,076.7 055.0,076.7,055.0,10.000,10.073,,12.8833,,12.8838,,12.8836,33.4726,,33.4784,33.4708,,33.4728,33.4756,5.9368,,6.2134,6.2663,5.8352,,6.1956,6.2728,6.2696,258.613,270.9763,211.6025,254.185,288.0341,211.4310,211.5168,0.2861,,2.0961,, ,, , ,25.2330,,25.2316,,1.1440,75.1260,,,,3.6947E+00,,1.0000E-12,,12.8819,12.8825,0.0234,272.866,98.970,97.275,,,,,,,,,,,,
CalCOFI,2101RL,071,,2101_071d,02-Feb-2021 11:53:43,02-Feb-2021 03:53:43,34.88456,-121.19262,076.7 055.0,076.7,055.0,11.000,11.080,,12.8805,,12.8804,,12.8805,33.4723,,33.4781,33.4707,,33.4727,33.4754,5.9541,,6.2315,6.2846,5.8469,,6.2080,6.2855,6.2851,259.363,271.7614,212.1339,254.696,288.8681,211.7996,211.9668,0.2907,,2.1338,, ,, , ,25.2334,,25.2322,,1.1420,75.1641,,,,3.6947E+00,,1.0000E-12,,12.8791,12.8789,0.0261,272.856,99.252,97.464,11,,33.4777,6.169,269.14,,,,,,,
CalCOFI,2101RL,071,,2101_071d,02-Feb-2021 11:53:44,02-Feb-2021 03:53:44,34.88456,-121.19262,076.7 055.0,076.7,055.0,12.000,12.088,,12.8798,,12.8794,,12.8796,33.4725,,33.4783,33.4706,,33.4726,33.4755,5.9468,,6.2238,6.2769,5.8391,,6.1997,6.2770,6.2770,259.047,271.4306,211.9100,254.354,288.5167,211.5529,211.7315,0.2951,,2.1699,, ,, , ,25.2337,,25.2324,,1.1446,75.1161,,,,3.6947E+00,,1.0000E-12,,12.8782,12.8778,0.0289,272.853,99.129,97.331,,,,,,,,,,,,
CalCOFI,2101RL,071,,2101_071d,02-Feb-2021 11:53:46,02-Feb-2021 03:53:46,34.88456,-121.19262,076.7 055.0,076.7,055.0,13.000,13.095,,12.8796,,12.8820,,12.8808,33.4724,,33.4782,33.4714,,33.4734,33.4758,5.9456,,6.2226,6.2756,5.8323,,6.1925,6.2697,6.2727,258.994,271.3751,211.8724,254.059,288.4578,211.3401,211.6063,0.2977,,2.1912,, ,, , ,25.2337,,25.2325,,1.1377,75.2440,,,,3.6947E+00,,1.0000E-12,,12.8778,12.8802,0.0316,272.882,99.109,97.224,,,,,,,,,,,,
CalCOFI,2101RL,071,,2101_071d,02-Feb-2021 11:53:50,02-Feb-2021 03:53:50,34.88457,-121.19260,076.7 055.0,076.7,055.0,14.000,14.102,,12.8811,,12.8816,,12.8814,33.4726,,33.4784,33.4711,,33.4731,33.4758,5.9300,,6.2062,6.2592,5.8421,,6.2029,6.2803,6.2698,258.314,270.6633,211.3906,254.486,287.7016,211.6482,211.5194,0.3075,,2.2715,, ,, , ,25.2336,,25.2323,,1.1400,75.2016,,,,3.6947E+00,,1.0000E-12,,12.8792,12.8797,0.0344,272.923,98.851,97.386,14,,33.4846,, ,,,,,,,
CalCOFI,2101RL,071,,2101_071d,02-Feb-2021 11:53:57,02-Feb-2021 03:53:57,34.88456,-121.19258,076.7 055.0,076.7,055.0,15.000,15.110,,12.8816,,12.8849,,12.8833,33.4728,,33.4786,33.4725,,33.4745,33.4766,5.7352,,6.0024,6.0534,5.6811,,6.0319,6.1065,6.0800,249.828,261.7802,205.3773,247.472,278.2651,206.5886,205.9830,0.3064,,2.2625,, ,, , ,25.2337,,25.2328,,1.1417,75.1686,,,,3.6947E+00,,1.0000E-12,,12.8796,12.8829,0.0375,272.940,95.605,94.710,,,,,,,,,,,,
CalCOFI,2101RL,071,,2101_071d,02-Feb-2021 11:53:58,02-Feb-2021 03:53:58,34.88456,-121.19258,076.7 055.0,076.7,055.0,16.000,16.117,,12.9909,,13.0281,,13.0095,33.5154,,33.5212,33.5271,,33.5291,33.5252,5.5381,,5.7961,5.8452,5.4879,,5.8267,5.8980,5.8716,241.242,252.7923,199.2931,239.055,268.7173,200.5171,199.9051,0.3231,,2.3993,, ,, , ,25.2451,,25.2468,,1.1379,75.2414,,,,3.6947E+00,,1.0000E-12,,12.9887,13.0259,0.0402,271.885,92.553,91.792,,,,,,,,,,,,
CalCOFI,2101RL,071,,2101_071d,02-Feb-2021 11:53:59,02-Feb-2021 03:53:59,34.88458,-121.19258,076.7 055.0,076.7,055.0,17.000,17.124,,13.0425,,13.0403,,13.0414,33.5478,,33.5536,33.5470,,33.5490,33.5513,5.5087,,5.7653,5.8142,5.4409,,5.7768,5.8473,5.8308,239.955,251.4451,198.3811,237.003,267.2861,199.0368,198.7090,0.3124,,2.3116,, ,, , ,25.2600,,25.2598,,1.0858,76.2283,,,,3.6947E+00,,1.0000E-12,,13.0402,13.0380,0.0430,270.498,92.178,91.040,,,,,,,,,,,,
CalCOFI,2101RL,071,,2101_071d,02-Feb-2021 11:54:02,02-Feb-2021 03:54:02,34.88457,-121.19257,076.7 055.0,076.7,055.0,18.000,18.131,,13.0148,,13.0085,,13.0117,33.5470,,33.5528,33.5456,,33.5476,33.5502,5.4883,,5.7440,5.7926,5.4023,,5.7358,5.8056,5.7991,239.070,250.5187,197.7540,235.321,266.3020,197.8235,197.7888,0.2794,,2.0412,, ,, , ,25.2649,,25.2651,,1.0649,76.6272,,,,3.6947E+00,,1.0000E-12,,13.0124,13.0060,0.0457,270.052,91.785,90.334,,,,,,,,,,,,
CalCOFI,2101RL,071,,2101_071d,02-Feb-2021 11:54:06,02-Feb-2021 03:54:06,34.88454,-121.19258,076.7 055.0,076.7,055.0,19.000,19.139,,12.9780,,12.9756,,12.9768,33.5470,,33.5528,33.5464,,33.5484,33.5506,5.2680,,5.5134,5.5599,5.2170,,5.5390,5.6056,5.5828,229.469,240.4683,190.9505,227.249,255.6255,192.0008,191.4757,0.2252,,1.5971,, ,, , ,25.2722,,25.2722,,1.0067,77.7539,,,,3.6947E+00,,1.0000E-12,,12.9754,12.9731,0.0484,269.387,88.033,87.177,,,,,,,,,,,,
CalCOFI,2101RL,071,,2101_071d,02-Feb-2021 11:54:08,02-Feb-2021 03:54:08,34.88454,-121.19258,076.7 055.0,076.7,055.0,20.000,20.146,,12.9521,,12.9517,,12.9519,33.5502,,33.5560,33.5487,,33.5507,33.5534,5.2679,,5.5133,5.5598,5.1912,,5.5116,5.5778,5.5688,229.462,240.4610,190.9456,226.122,255.6177,191.1879,191.0668,0.1796,,1.2235,, ,, , ,25.2798,,25.2788,,0.9321,79.2127,,,,3.6947E+00,,1.0000E-12,,12.9494,12.9490,0.0511,268.686,87.986,86.704,20,,33.5425,5.675,247.61,,,,,,,
CalCOFI,2101RL,071,,2101_071d,02-Feb-2021 11:54:09,02-Feb-2021 03:54:09,34.88456,-121.19258,076.7 055.0,076.7,055.0,21.000,21.154,,12.9392,,12.9387,,12.9390,33.5487,,33.5545,33.5471,,33.5491,33.5518,5.2611,,5.5062,5.5527,5.1743,,5.4936,5.5596,5.5562,229.167,240.1522,190.7365,225.385,255.2897,190.6563,190.6964,0.1744,,1.1809,, ,, , ,25.2813,,25.2801,,0.9118,79.6173,,,,3.6947E+00,,1.0000E-12,,12.9363,12.9359,0.0538,268.574,87.849,86.397,,,,,,,,,,,,
CalCOFI,2101RL,071,,2101_071d,02-Feb-2021 11:54:10,02-Feb-2021 03:54:10,34.88456,-121.19258,076.7 055.0,076.7,055.0,22.000,22.161,,12.9314,,12.9311,,12.9313,33.5477,,33.5535,33.5462,,33.5482,33.5509,5.2525,,5.4972,5.5436,5.1715,,5.4907,5.5565,5.5501,228.790,239.7576,190.4694,225.262,254.8705,190.5675,190.5185,0.1703,,1.1473,, ,, , ,25.2820,,25.2809,,0.9037,79.7767,,,,3.6947E+00,,1.0000E-12,,12.9285,12.9281,0.0565,268.530,87.690,86.336,,,,,,,,,,,,
CalCOFI,2101RL,071,,2101_071d,02-Feb-2021 11:54:11,02-Feb-2021 03:54:11,34.88456,-121.19258,076.7 055.0,076.7,055.0,23.000,23.168,,12.9136,,12.9120,,12.9128,33.5446,,33.5504,33.5429,,33.5449,33.5477,5.2527,,5.4974,5.5438,5.1744,,5.4937,5.5597,5.5518,228.803,239.7712,190.4786,225.390,254.8849,190.6599,190.5693,0.1633,,1.0899,, ,, , ,25.2832,,25.2822,,0.8942,79.9666,,,,3.6947E+00,,1.0000E-12,,12.9104,12.9089,0.0592,268.446,87.660,86.349,,,,,,,,,,,,
CalCOFI,2101RL,071,,2101_071d,02-Feb-2021 11:54:13,02-Feb-2021 03:54:13,34.88456,-121.19256,076.7 055.0,076.7,055.0,24.000,24.176,,12.8781,,12.8769,,12.8775,33.5386,,33.5444,33.5363,,33.5383,33.5414,5.2572,,5.5021,5.5485,5.1913,,5.5117,5.5779,5.5632,228.996,239.9732,190.6154,226.125,255.0995,191.1900,190.9027,0.1500,,0.9809,, ,, , ,25.2856,,25.2840,,0.8827,80.1974,,,,3.6947E+00,,1.0000E-12,,12.8749,12.8737,0.0619,268.246,87.667,86.564,,,,,,,,,,,,
CalCOFI,2101RL,071,,2101_071d,02-Feb-2021 11:54:17,02-Feb-2021 03:54:17,34.88454,-121.19256,076.7 055.0,076.7,055.0,25.000,25.183,,12.8611,,12.8620,,12.8616,33.5360,,33.5418,33.5341,,33.5361,33.5390,5.2507,,5.4953,5.5417,5.1690,,5.4880,5.5538,5.5478,228.713,239.6770,190.4148,225.156,254.7848,190.4911,190.4530,0.1375,,0.8785,, ,, , ,25.2869,,25.2853,,0.8723,80.4062,,,,3.6947E+00,,1.0000E-12,,12.8577,12.8586,0.0646,268.145,87.527,86.166,,,,,,,,,,,,
CalCOFI,2101RL,071,,2101_071d,02-Feb-2021 11:54:18,02-Feb-2021 03:54:18,34.88454,-121.19256,076.7 055.0,076.7,055.0,26.000,26.190,,12.8513,,12.8498,,12.8506,33.5343,,33.5401,33.5327,,33.5347,33.5374,5.2282,,5.4717,5.5179,5.1519,,5.4698,5.5354,5.5267,227.732,238.6501,189.7197,224.409,253.6940,189.9522,189.8360,0.1346,,0.8547,, ,, , ,25.2875,,25.2866,,0.8626,80.6023,,,,3.6947E+00,,1.0000E-12,,12.8478,12.8463,0.0673,268.110,87.133,85.858,,,,,,,,,,,,
CalCOFI,2101RL,071,,2101_071d,02-Feb-2021 11:54:20,02-Feb-2021 03:54:20,34.88454,-121.19256,076.7 055.0,076.7,055.0,27.000,27.198,,12.8423,,12.8426,,12.8425,33.5338,,33.5396,33.5322,,33.5342,33.5369,5.2156,,5.4585,5.5046,5.1434,,5.4608,5.5262,5.5154,227.184,238.0764,189.3313,224.041,253.0846,189.6868,189.5091,0.1323,,0.8359,, ,, , ,25.2890,,25.2877,,0.8596,80.6618,,,,3.6947E+00,,1.0000E-12,,12.8387,12.8390,0.0700,268.000,86.907,85.704,,,,,,,,,,,,
CalCOFI,2101RL,071,,2101_071d,02-Feb-2021 11:54:21,02-Feb-2021 03:54:21,34.88454,-121.19256,076.7 055.0,076.7,055.0,28.000,28.205,,12.8453,,12.8457,,12.8455,33.5354,,33.5412,33.5339,,33.5359,33.5386,5.2124,,5.4552,5.5012,5.1296,,5.4461,5.5113,5.5063,227.046,237.9320,189.2336,223.436,252.9311,189.2503,189.2420,0.1287,,0.8064,, ,, , ,25.2896,,25.2884,,0.8578,80.6986,,,,3.6947E+00,,1.0000E-12,,12.8415,12.8419,0.0727,267.964,86.860,85.479,,,,,,,,,,,,
CalCOFI,2101RL,071,,2101_071d,02-Feb-2021 11:54:22,02-Feb-2021 03:54:22,34.88455,-121.19257,076.7 055.0,076.7,055.0,29.000,29.213,,12.8575,,12.8567,,12.8571,33.5401,,33.5459,33.5382,,33.5402,33.5431,5.1922,,5.4341,5.4799,5.1206,,5.4366,5.5016,5.4908,226.163,237.0076,188.6078,223.045,251.9492,188.9683,188.7881,0.1196,,0.7318,, ,, , ,25.2909,,25.2896,,0.8547,80.7609,,,,3.6947E+00,,1.0000E-12,,12.8536,12.8528,0.0754,267.869,86.547,85.351,,,,,,,,,,,,
CalCOFI,2101RL,071,,2101_071d,02-Feb-2021 11:54:24,02-Feb-2021 03:54:24,34.88456,-121.19258,076.7 055.0,076.7,055.0,30.000,30.220,,12.8655,,12.8660,,12.8658,33.5432,,33.5490,33.5417,,33.5437,33.5464,5.1825,,5.4239,5.4696,5.0981,,5.4127,5.4773,5.4735,225.743,236.5680,188.3102,222.065,251.4822,188.2614,188.2858,0.1139,,0.6851,, ,, , ,25.2918,,25.2905,,0.8483,80.8911,,,,3.6947E+00,,1.0000E-12,,12.8614,12.8619,0.0781,267.819,86.402,84.994,,,,,,,,,,,,
CalCOFI,2101RL,071,,2101_071d,02-Feb-2021 11:54:26,02-Feb-2021 03:54:26,34.88454,-121.19258,076.7 055.0,076.7,055.0,31.000,31.227,,12.8604,,12.8551,,12.8578,33.5448,,33.5506,33.5435,,33.5455,33.5481,5.1980,,5.4401,5.4860,5.1007,,5.4155,5.4801,5.4831,226.417,237.2735,188.7878,222.178,252.2317,188.3429,188.5654,0.1112,,0.6630,, ,, , ,25.2941,,25.2940,,0.8428,81.0012,,,,3.6947E+00,,1.0000E-12,,12.8562,12.8510,0.0808,267.627,86.652,85.020,,,,,,,,,,,,
CalCOFI,2101RL,071,,2101_071d,02-Feb-2021 11:54:29,02-Feb-2021 03:54:29,34.88456,-121.19258,076.7 055.0,076.7,055.0,32.000,32.235,,12.7906,,12.7838,,12.7872,33.5315,,33.5373,33.5332,,33.5352,33.5363,5.2493,,5.4938,5.5402,5.1454,,5.4629,5.5284,5.5343,228.648,239.6089,190.3688,224.125,254.7126,189.7473,190.0581,0.1066,,0.6253,, ,, , ,25.2975,,25.3001,,0.8363,81.1332,,,,3.6947E+00,,1.0000E-12,,12.7863,12.7795,0.0835,267.324,87.373,85.633,,,,,,,,,,,,
CalCOFI,2101RL,071,,2101_071d,02-Feb-2021 11:54:32,02-Feb-2021 03:54:32,34.88456,-121.19258,076.7 055.0,076.7,055.0,33.000,33.242,,12.7267,,12.7265,,12.7266,33.5140,,33.5198,33.5124,,33.5144,33.5171,5.1836,,5.4251,5.4708,5.1334,,5.4502,5.5154,5.4931,225.788,236.6151,188.3421,223.602,251.5322,189.3701,188.8561,0.1080,,0.6368,, ,, , ,25.2964,,25.2953,,0.8344,81.1706,,,,3.6947E+00,,1.0000E-12,,12.7223,12.7221,0.0862,267.447,86.156,85.321,,,,,,,,,,,,
CalCOFI,2101RL,071,,2101_071d,02-Feb-2021 11:54:33,02-Feb-2021 03:54:33,34.88456,-121.19258,076.7 055.0,076.7,055.0,34.000,34.250,,12.7029,,12.7052,,12.7041,33.5147,,33.5205,33.5137,,33.5157,33.5181,5.0714,,5.3076,5.3523,5.0260,,5.3361,5.3995,5.3759,220.900,231.4983,184.8784,218.924,246.0967,185.9956,185.4370,0.1022,,0.5892,, ,, , ,25.3016,,25.3004,,0.8235,81.3943,,,,3.6947E+00,,1.0000E-12,,12.6984,12.7006,0.0889,266.976,84.250,83.500,,,,,,,,,,,,
CalCOFI,2101RL,071,,2101_071d,02-Feb-2021 11:54:34,02-Feb-2021 03:54:34,34.88456,-121.19258,076.7 055.0,076.7,055.0,35.000,35.257,,12.7966,,12.8068,,12.8017,33.5482,,33.5540,33.5496,,33.5516,33.5528,5.0226,,5.2566,5.3008,4.9600,,5.2660,5.3283,5.3146,218.774,229.2728,183.3719,216.047,243.7325,183.9203,183.6461,0.0882,,0.4745,, ,, , ,25.3093,,25.3084,,0.8168,81.5302,,,,3.6947E+00,,1.0000E-12,,12.7919,12.8021,0.0916,266.282,83.620,82.596,,,,,,,,,,,,
CalCOFI,2101RL,071,,2101_071d,02-Feb-2021 11:54:35,02-Feb-2021 03:54:35,34.88456,-121.19258,076.7 055.0,076.7,055.0,36.000,36.265,,12.8203,,12.8205,,12.8204,33.5640,,33.5698,33.5632,,33.5652,33.5675,5.0250,,5.2591,5.3033,4.9426,,5.2475,5.3095,5.3064,218.873,229.3765,183.4420,215.285,243.8426,183.3706,183.4063,0.0854,,0.4516,, ,, , ,25.3169,,25.3163,,0.8142,81.5842,,,,3.6947E+00,,1.0000E-12,,12.8155,12.8157,0.0943,265.583,83.708,82.335,,,,,,,,,,,,
CalCOFI,2101RL,071,,2101_071d,02-Feb-2021 11:54:37,02-Feb-2021 03:54:37,34.88456,-121.19258,076.7 055.0,076.7,055.0,37.000,37.272,,12.8232,,12.8245,,12.8239,33.5715,,33.5773,33.5706,,33.5726,33.5750,5.0257,,5.2598,5.3040,4.9347,,5.2391,5.3010,5.3025,218.903,229.4079,183.4633,214.940,243.8760,183.1218,183.2926,0.0846,,0.4450,, ,, , ,25.3222,,25.3212,,0.8126,81.6160,,,,3.6947E+00,,1.0000E-12,,12.8182,12.8195,0.0969,265.107,83.729,82.214,,,,,,,,,,,,
CalCOFI,2101RL,071,,2101_071d,02-Feb-2021 11:54:39,02-Feb-2021 03:54:39,34.88456,-121.19259,076.7 055.0,076.7,055.0,38.000,38.280,,12.8264,,12.8296,,12.8280,33.5726,,33.5784,33.5723,,33.5743,33.5764,5.0358,,5.2704,5.3147,4.9250,,5.2288,5.2905,5.3026,219.346,229.8716,183.7772,214.516,244.3686,182.8159,183.2966,0.0839,,0.4393,, ,, , ,25.3224,,25.3216,,0.8124,81.6205,,,,3.6947E+00,,1.0000E-12,,12.8212,12.8245,0.0996,265.116,83.904,82.062,,,,,,,,,,,,
CalCOFI,2101RL,071,,2101_071d,02-Feb-2021 11:54:43,02-Feb-2021 03:54:43,34.88456,-121.19258,076.7 055.0,076.7,055.0,39.000,39.287,,12.8236,,12.8323,,12.8280,33.5709,,33.5767,33.5747,,33.5767,33.5767,5.0007,,5.2336,5.2776,4.9134,,5.2165,5.2780,5.2778,217.818,228.2721,182.6944,214.014,242.6694,182.4538,182.5741,0.0827,,0.4295,, ,, , ,25.3217,,25.3229,,0.8120,81.6275,,,,3.6947E+00,,1.0000E-12,,12.8184,12.8271,0.1023,265.213,83.314,81.876,,,,,,,,,,,,
CalCOFI,2101RL,071,,2101_071d,02-Feb-2021 11:54:46,02-Feb-2021 03:54:46,34.88454,-121.19258,076.7 055.0,076.7,055.0,40.000,40.294,,12.8251,,12.8217,,12.8234,33.5795,,33.5853,33.5787,,33.5807,33.5830,4.8724,,5.0994,5.1421,4.8011,,5.0972,5.1568,5.1495,212.227,222.4194,178.7326,209.122,236.4522,178.9250,178.8288,0.0803,,0.4098,, ,, , ,25.3281,,25.3281,,0.8128,81.6111,,,,3.6947E+00,,1.0000E-12,,12.8197,12.8163,0.1049,264.631,81.183,79.989,,,,,,,,,,,,
CalCOFI,2101RL,071,,2101_071d,02-Feb-2021 11:54:47,02-Feb-2021 03:54:47,34.88454,-121.19258,076.7 055.0,076.7,055.0,41.000,41.302,,12.7867,,12.7849,,12.7858,33.5851,,33.5909,33.5837,,33.5857,33.5883,4.8120,,5.0361,5.0783,4.7517,,5.0448,5.1035,5.0909,209.593,219.6622,176.8661,206.969,233.5231,177.3719,177.1190,0.0753,,0.3688,, ,, , ,25.3400,,25.3393,,0.8110,81.6482,,,,3.6947E+00,,1.0000E-12,,12.7812,12.7793,0.1076,263.524,80.115,79.108,,,,,,,,,,,,
CalCOFI,2101RL,071,,2101_071d,02-Feb-2021 11:54:48,02-Feb-2021 03:54:48,34.88455,-121.19258,076.7 055.0,076.7,055.0,42.000,42.309,,12.7684,,12.7681,,12.7683,33.5871,,33.5929,33.5856,,33.5876,33.5903,4.7715,,4.9938,5.0355,4.7143,,5.0051,5.0631,5.0493,207.828,217.8146,175.6154,205.338,231.5604,176.1954,175.9054,0.0743,,0.3606,, ,, , ,25.3452,,25.3441,,0.8110,81.6487,,,,3.6947E+00,,1.0000E-12,,12.7628,12.7625,0.1103,263.053,79.412,78.459,,,,,,,,,,,,
CalCOFI,2101RL,071,,2101_071d,02-Feb-2021 11:54:49,02-Feb-2021 03:54:49,34.88456,-121.19258,076.7 055.0,076.7,055.0,43.000,43.317,,12.7422,,12.7446,,12.7434,33.5892,,33.5950,33.5874,,33.5894,33.5922,4.7471,,4.9682,5.0098,4.6745,,4.9628,5.0202,5.0150,206.766,216.7028,174.8628,203.604,230.3794,174.9446,174.9037,0.0731,,0.3508,, ,, , ,25.3519,,25.3501,,0.8092,81.6847,,,,3.6947E+00,,1.0000E-12,,12.7364,12.7388,0.1129,262.439,78.964,77.760,,,,,,,,,,,,
CalCOFI,2101RL,071,,2101_071d,02-Feb-2021 11:54:50,02-Feb-2021 03:54:50,34.88456,-121.19258,076.7 055.0,076.7,055.0,44.000,44.324,,12.7174,,12.7172,,12.7173,33.5901,,33.5959,33.5886,,33.5906,33.5933,4.6939,,4.9125,4.9536,4.6280,,4.9134,4.9700,4.9618,204.448,214.2764,173.2202,201.575,227.8018,173.4810,173.3506,0.0731,,0.3508,, ,, , ,25.3575,,25.3564,,0.8086,81.6969,,,,3.6947E+00,,1.0000E-12,,12.7115,12.7113,0.1156,261.929,78.040,76.942,,,,,,,,,,,,
CalCOFI,2101RL,071,,2101_071d,02-Feb-2021 11:54:52,02-Feb-2021 03:54:52,34.88456,-121.19260,076.7 055.0,076.7,055.0,45.000,45.332,,12.6842,,12.6812,,12.6827,33.5920,,33.5978,33.5910,,33.5930,33.5954,4.6741,,4.8918,4.9327,4.5672,,4.8488,4.9044,4.9186,203.580,213.3677,172.6051,198.927,226.8366,171.5708,172.0880,0.0722,,0.3434,, ,, , ,25.3656,,25.3653,,0.8072,81.7263,,,,3.6947E+00,,1.0000E-12,,12.6782,12.6752,0.1182,261.192,77.657,75.877,,,,,,,,,,,,
CalCOFI,2101RL,071,,2101_071d,02-Feb-2021 11:54:55,02-Feb-2021 03:54:55,34.88456,-121.19260,076.7 055.0,076.7,055.0,46.000,46.339,,12.6702,,12.6492,,12.6597,33.5949,,33.6007,33.5937,,33.5957,33.5982,4.6970,,4.9158,4.9568,4.5871,,4.8700,4.9258,4.9413,204.576,214.4104,173.3109,199.790,227.9441,172.1934,172.7522,0.0713,,0.3360,, ,, , ,25.3705,,25.3737,,0.8060,81.7504,,,,3.6947E+00,,1.0000E-12,,12.6641,12.6431,0.1208,260.744,78.015,76.157,,,,,,,,,,,,
CalCOFI,2101RL,071,,2101_071d,02-Feb-2021 11:54:59,02-Feb-2021 03:54:59,34.88456,-121.19258,076.7 055.0,076.7,055.0,47.000,47.347,,12.5838,,12.5554,,12.5696,33.5976,,33.6034,33.5973,,33.5993,33.6014,4.4030,,4.6081,4.6463,4.3723,,4.6418,4.6940,4.6702,191.769,201.0040,164.2357,190.432,213.7025,165.4430,164.8394,0.0684,,0.3123,, ,, , ,25.3895,,25.3947,,0.8023,81.8274,,,,3.6947E+00,,1.0000E-12,,12.5775,12.5491,0.1234,258.964,73.003,72.452,,,,,,,,,,,,
CalCOFI,2101RL,071,,2101_071d,02-Feb-2021 11:55:01,02-Feb-2021 03:55:01,34.88455,-121.19259,076.7 055.0,076.7,055.0,48.000,48.354,,12.4210,,12.4211,,12.4211,33.6042,,33.6100,33.6031,,33.6051,33.6076,4.3519,,4.5546,4.5923,4.3047,,4.5700,4.6210,4.6067,189.535,198.6654,162.6526,187.481,211.2183,163.3143,162.9835,0.0623,,0.2623,, ,, , ,25.4260,,25.4251,,0.8023,81.8250,,,,3.6947E+00,,1.0000E-12,,12.4146,12.4148,0.1260,255.498,71.914,71.135,,,,,,,,,,,,
CalCOFI,2101RL,071,,2101_071d,02-Feb-2021 11:55:03,02-Feb-2021 03:55:03,34.88454,-121.19260,076.7 055.0,076.7,055.0,49.000,49.362,,12.3726,,12.3713,,12.3720,33.6068,,33.6126,33.6054,,33.6074,33.6100,4.2963,,4.4964,4.5336,4.2463,,4.5080,4.5580,4.5458,187.114,196.1311,160.9371,184.934,208.5261,161.4770,161.2071,0.0606,,0.2484,, ,, , ,25.4374,,25.4365,,0.8042,81.7862,,,,3.6947E+00,,1.0000E-12,,12.3661,12.3648,0.1286,254.440,70.926,70.097,,,,,,,,,,,,
CalCOFI,2101RL,071,,2101_071d,02-Feb-2021 11:55:04,02-Feb-2021 03:55:04,34.88454,-121.19260,076.7 055.0,076.7,055.0,50.000,50.369,,12.3423,,12.3421,,12.3422,33.6087,,33.6145,33.6072,,33.6092,33.6119,4.2172,,4.4136,4.4501,4.1761,,4.4334,4.4823,4.4662,183.666,192.5218,158.4937,181.876,204.6919,159.2712,158.8825,0.0570,,0.2189,, ,, , ,25.4447,,25.4436,,0.8047,81.7768,,,,3.6947E+00,,1.0000E-12,,12.3358,12.3356,0.1311,253.766,69.577,68.898,,,,,,,,,,,,
CalCOFI,2101RL,071,,2101_071d,02-Feb-2021 11:55:05,02-Feb-2021 03:55:05,34.88455,-121.19260,076.7 055.0,076.7,055.0,51.000,51.377,,12.2990,,12.2968,,12.2979,33.6115,,33.6173,33.6105,,33.6125,33.6149,4.1511,,4.3444,4.3803,4.1207,,4.3746,4.4225,4.4014,180.788,189.5091,156.4543,179.460,201.4915,157.5284,156.9914,0.0559,,0.2099,, ,, , ,25.4552,,25.4549,,0.8061,81.7489,,,,3.6947E+00,,1.0000E-12,,12.2923,12.2902,0.1337,252.794,68.426,67.920,51,,33.6017,4.576,199.64,,,,,,,
CalCOFI,2101RL,071,,2101_071d,02-Feb-2021 11:55:06,02-Feb-2021 03:55:06,34.88456,-121.19260,076.7 055.0,076.7,055.0,52.000,52.384,,12.2495,,12.2480,,12.2488,33.6152,,33.6210,33.6138,,33.6158,33.6184,4.1315,,4.3239,4.3596,4.0783,,4.3296,4.3767,4.3682,179.932,188.6130,155.8478,177.613,200.5396,156.1961,156.0220,0.0551,,0.2033,, ,, , ,25.4676,,25.4668,,0.8080,81.7094,,,,3.6947E+00,,1.0000E-12,,12.2427,12.2412,0.1362,251.640,68.034,67.155,,,,,,,,,,,,
CalCOFI,2101RL,071,,2101_071d,02-Feb-2021 11:55:07,02-Feb-2021 03:55:07,34.88456,-121.19260,076.7 055.0,076.7,055.0,53.000,53.392,,12.1814,,12.1785,,12.1800,33.6197,,33.6255,33.6184,,33.6204,33.6230,4.1558,,4.3494,4.3852,4.0688,,4.3195,4.3665,4.3759,180.984,189.7143,156.5932,177.196,201.7094,155.8952,156.2442,0.0541,,0.1951,, ,, , ,25.4841,,25.4836,,0.8102,81.6647,,,,3.6947E+00,,1.0000E-12,,12.1745,12.1716,0.1388,250.090,68.337,66.903,,,,,,,,,,,,